Change the Weather History Date:

Thursday, October 31, 2013

  Actual Average (KPAH) Record (KPAH)
Temperature  
Mean Temperature 62 °F 54 °F  
Max Temperature 68 °F 66 °F 85 °F (1950)
Min Temperature 57 °F 43 °F 24 °F (1993)
Degree Days  
Heating Degree Days 2 11  
Month to date heating degree days 228  
Since 1 July heating degree days 267  
Cooling Degree Days 0 0  
Month to date cooling degree days 38  
Year to date cooling degree days 1538  
Growing Degree Days 12 (Base 50)    
Moisture  
Dew Point 61 °F    
Average Humidity 91    
Maximum Humidity 100    
Minimum Humidity 73    
Precipitation  
Precipitation 0.37 in 0.12 in 2.50 in (1941)
Month to date precipitation 3.96  
Year to date precipitation 40.19  
Snow  
Snow 0.00 in 0.00 in 0.10 in (1993)
Month to date snowfall 0.1  
Since 1 July snowfall 0.1  
Since 1 September snowfall 0.1  
Snow Depth -    
Sea Level Pressure  
Sea Level Pressure 29.71 in    
Wind  
Wind Speed 14 mph (SSW)    
Max Wind Speed 25 mph    
Max Gust Speed 38 mph    
Visibility 8 miles    
Events      
T = Trace of Precipitation, MM = Missing Value Source: NWS Daily Summary

Daily Weather History Graph

Daily Weather History Graph

Search for Another Location

Airport or City:

Trip Planner

Search our weather history database for the weather conditions in past years. The results will help you decide how hot, cold, wet, or windy it might be!

Date:

Astronomy

Oct. 31, 2013 Rise Set
Actual Time 7:16 AM CDT 5:57 PM CDT
Civil Twilight 6:49 AM CDT 6:24 PM CDT
Nautical Twilight 6:19 AM CDT 6:54 PM CDT
Astronomical Twilight 5:48 AM CDT 7:24 PM CDT
Moon 4:10 AM CDT (10/31) 4:11 PM CDT (10/31)
Length of Visible Light 11h 34m
Length of Day
10h 41m
Waning Crescent, 10% of the Moon is Illuminated
Oct 31
Waning Crescent
Nov 3
New
Nov 9
First Quarter
Nov 17
Full
Nov 25
Last Quarter

Hourly Weather History & Observations

Time (CDT) Temp. Dew Point Humidity Pressure Visibility Wind Dir Wind Speed Gust Speed Precip Events Conditions
12:15 AM 66.2 °F 57.2 °F 73% 29.98 in 10.0 mi South 13.8 mph 17.3 mph N/A   Overcast
12:35 AM 66.2 °F 57.2 °F 73% 29.99 in 10.0 mi South 10.4 mph 16.1 mph N/A   Overcast
12:55 AM 66.2 °F 57.2 °F 73% 29.98 in 10.0 mi South 10.4 mph - N/A   Overcast
1:15 AM 66.2 °F 59.0 °F 78% 29.97 in 10.0 mi South 10.4 mph 16.1 mph N/A   Overcast
1:35 AM 66.2 °F 59.0 °F 78% 29.97 in 10.0 mi South 11.5 mph 17.3 mph N/A   Overcast
1:55 AM 66.2 °F 59.0 °F 78% 29.97 in 10.0 mi South 10.4 mph 19.6 mph N/A   Overcast
2:15 AM 64.4 °F 59.0 °F 83% 29.96 in 10.0 mi South 9.2 mph - N/A   Overcast
2:35 AM 64.4 °F 59.0 °F 83% 29.96 in 10.0 mi South 11.5 mph - N/A   Mostly Cloudy
2:55 AM 64.4 °F 59.0 °F 83% 29.95 in 10.0 mi South 11.5 mph - N/A   Overcast
3:15 AM 64.4 °F 59.0 °F 83% 29.94 in 5.0 mi South 9.2 mph - N/A   Overcast
3:35 AM 62.6 °F 59.0 °F 88% 29.94 in 5.0 mi South 8.1 mph - 0.01 in   Mostly Cloudy
3:55 AM 62.6 °F 59.0 °F 88% 29.92 in 8.0 mi South 9.2 mph 20.7 mph 0.02 in   Overcast
4:15 AM 62.6 °F 59.0 °F 88% 29.91 in 10.0 mi South 10.4 mph 16.1 mph N/A   Overcast
4:35 AM 62.6 °F 59.0 °F 88% 29.91 in 10.0 mi South 9.2 mph 16.1 mph N/A   Overcast
4:55 AM 62.6 °F 59.0 °F 88% 29.91 in 9.0 mi South 10.4 mph 18.4 mph N/A   Overcast
5:15 AM 62.6 °F 60.8 °F 94% 29.90 in 10.0 mi South 12.7 mph 20.7 mph N/A   Overcast
5:35 AM 62.6 °F 59.0 °F 88% 29.89 in 9.0 mi South 12.7 mph 20.7 mph N/A   Overcast
5:55 AM 62.6 °F 59.0 °F 88% 29.88 in 10.0 mi South 15.0 mph 24.2 mph N/A   Overcast
6:15 AM 62.6 °F 57.2 °F 82% 29.87 in 10.0 mi South 13.8 mph 21.9 mph N/A   Overcast
6:35 AM 62.6 °F 57.2 °F 82% 29.84 in 9.0 mi South 18.4 mph 27.6 mph N/A   Overcast
6:55 AM 62.6 °F 57.2 °F 82% 29.81 in 10.0 mi South 20.7 mph 29.9 mph N/A   Overcast
7:15 AM 60.8 °F 57.2 °F 88% 29.81 in 9.0 mi South 19.6 mph 29.9 mph N/A   Overcast
7:35 AM 60.8 °F 57.2 °F 88% 29.81 in 10.0 mi South 18.4 mph 28.8 mph N/A   Overcast
7:55 AM 59.0 °F 57.2 °F 94% 29.80 in 6.0 mi South 15.0 mph 24.2 mph 0.01 in   Overcast
8:15 AM 59.0 °F 59.0 °F 100% 29.78 in 10.0 mi South 18.4 mph 27.6 mph N/A   Overcast
8:35 AM 60.8 °F 59.0 °F 94% 29.77 in 7.0 mi South 16.1 mph 26.5 mph N/A   Overcast
8:55 AM 62.6 °F 59.0 °F 88% 29.75 in 9.0 mi South 24.2 mph 33.4 mph N/A   Overcast
9:15 AM 62.6 °F 59.0 °F 88% 29.73 in 10.0 mi South 16.1 mph 36.8 mph N/A   Overcast
9:35 AM 64.4 °F 59.0 °F 83% 29.73 in 10.0 mi South 25.3 mph 34.5 mph N/A   Overcast
9:55 AM 64.4 °F 60.8 °F 88% 29.72 in 8.0 mi South 24.2 mph 38.0 mph N/A   Overcast
10:15 AM 64.4 °F 62.6 °F 94% 29.70 in 5.0 mi South 17.3 mph 32.2 mph 0.01 in   Mostly Cloudy
10:35 AM 64.4 °F 62.6 °F 94% 29.70 in 7.0 mi South 16.1 mph 27.6 mph 0.01 in   Mostly Cloudy
10:55 AM 64.4 °F 64.4 °F 100% 29.69 in 5.0 mi South 18.4 mph 28.8 mph 0.02 in   Mostly Cloudy
11:15 AM 66.2 °F 64.4 °F 94% 29.70 in 7.0 mi South 19.6 mph 25.3 mph 0.01 in   Mostly Cloudy
11:35 AM 66.2 °F 64.4 °F 94% 29.69 in 7.0 mi SSW 18.4 mph 33.4 mph 0.01 in   Mostly Cloudy
11:55 AM 66.2 °F 64.4 °F 94% 29.67 in 5.0 mi South 19.6 mph 28.8 mph 0.02 in   Mostly Cloudy
12:15 PM 66.2 °F 64.4 °F 94% 29.66 in 4.0 mi SSW 13.8 mph 29.9 mph N/A   Mostly Cloudy
12:35 PM 66.2 °F 66.2 °F 100% 29.66 in 4.0 mi SSW 17.3 mph 32.2 mph 0.02 in   Overcast
12:55 PM 66.2 °F 66.2 °F 100% 29.63 in 5.0 mi South 16.1 mph 34.5 mph 0.03 in   Mostly Cloudy
1:15 PM 66.2 °F 66.2 °F 100% 29.61 in 6.0 mi South 17.3 mph 28.8 mph 0.01 in   Mostly Cloudy
1:35 PM 66.2 °F 66.2 °F 100% 29.61 in 9.0 mi SSW 17.3 mph 34.5 mph 0.02 in   Overcast
1:55 PM 66.2 °F 66.2 °F 100% 29.59 in 10.0 mi SSW 15.0 mph 31.1 mph 0.02 in   Mostly Cloudy
2:15 PM 66.2 °F 66.2 °F 100% 29.58 in 5.0 mi South 16.1 mph 25.3 mph 0.01 in   Mostly Cloudy
2:35 PM 66.2 °F 66.2 °F 100% 29.56 in 5.0 mi South 21.9 mph 35.7 mph 0.03 in   Mostly Cloudy
2:55 PM 66.2 °F 66.2 °F 100% 29.55 in 8.0 mi South 13.8 mph 31.1 mph 0.03 in   Mostly Cloudy
3:15 PM 66.2 °F 66.2 °F 100% 29.53 in 10.0 mi South 11.5 mph 25.3 mph N/A   Mostly Cloudy
3:35 PM 66.2 °F 66.2 °F 100% 29.53 in 10.0 mi South 12.7 mph 23.0 mph N/A   Overcast
3:55 PM 68.0 °F 66.2 °F 94% 29.52 in 10.0 mi SSW 13.8 mph 23.0 mph N/A   Overcast
4:15 PM 68.0 °F 66.2 °F 94% 29.53 in 10.0 mi SSW 16.1 mph 27.6 mph N/A   Overcast
4:35 PM 68.0 °F 66.2 °F 94% 29.52 in 5.0 mi SSW 11.5 mph 25.3 mph N/A   Overcast
4:55 PM 68.0 °F 66.2 °F 94% 29.52 in 10.0 mi SSW 18.4 mph 32.2 mph N/A   Overcast
5:15 PM 68.0 °F 66.2 °F 94% 29.52 in 10.0 mi SSW 13.8 mph 21.9 mph N/A   Overcast
5:35 PM 68.0 °F 64.4 °F 88% 29.53 in 10.0 mi SW 17.3 mph 25.3 mph N/A   Overcast
5:55 PM 68.0 °F 64.4 °F 88% 29.52 in 10.0 mi SW 16.1 mph 28.8 mph N/A   Overcast
6:15 PM 68.0 °F 64.4 °F 88% 29.52 in 10.0 mi SW 18.4 mph 26.5 mph N/A   Mostly Cloudy
6:35 PM 68.0 °F 64.4 °F 88% 29.53 in 10.0 mi SW 13.8 mph 24.2 mph N/A   Overcast
6:55 PM 68.0 °F 64.4 °F 88% 29.53 in 5.0 mi SW 15.0 mph 26.5 mph N/A   Overcast
7:15 PM 68.0 °F 64.4 °F 88% 29.54 in 10.0 mi SW 17.3 mph 28.8 mph N/A   Overcast
7:35 PM 68.0 °F 64.4 °F 88% 29.54 in 10.0 mi SW 15.0 mph 28.8 mph N/A   Overcast
7:55 PM 68.0 °F 64.4 °F 88% 29.54 in 10.0 mi SW 17.3 mph 28.8 mph N/A   Overcast
8:15 PM 68.0 °F 64.4 °F 88% 29.53 in 10.0 mi SW 18.4 mph 31.1 mph N/A   Mostly Cloudy
8:35 PM 68.0 °F 64.4 °F 88% 29.55 in 10.0 mi SW 19.6 mph 34.5 mph N/A   Mostly Cloudy
8:55 PM 68.0 °F 62.6 °F 83% 29.56 in 10.0 mi SW 23.0 mph 35.7 mph N/A   Overcast
9:15 PM 68.0 °F 62.6 °F 83% 29.56 in 10.0 mi SW 25.3 mph 33.4 mph N/A   Mostly Cloudy
9:35 PM 59.0 °F 55.4 °F 88% 29.61 in 2.0 mi West 19.6 mph 34.5 mph 0.10 in   Overcast
9:55 PM 57.2 °F 57.2 °F 100% 29.64 in 5.0 mi West 12.7 mph 21.9 mph 0.20 in   Overcast
10:15 PM 57.2 °F 57.2 °F 100% 29.64 in 8.0 mi West 9.2 mph - 0.02 in   Overcast
10:35 PM 57.2 °F 57.2 °F 100% 29.65 in 10.0 mi West 10.4 mph - 0.02 in   Mostly Cloudy
10:55 PM 57.2 °F 57.2 °F 100% 29.67 in 10.0 mi West 10.4 mph - 0.02 in   Scattered Clouds
11:15 PM 57.2 °F 57.2 °F 100% 29.68 in 10.0 mi West 11.5 mph - N/A   Mostly Cloudy
11:35 PM 57.2 °F 57.2 °F 100% 29.69 in 10.0 mi West 11.5 mph 17.3 mph N/A   Mostly Cloudy
11:55 PM 57.2 °F 57.2 °F 100% 29.69 in 10.0 mi West 11.5 mph 21.9 mph N/A   Mostly Cloudy